Location: Newark
(48.1500°N, 2.9667°W)
Time: 03:34:43
(UTC+00:00)

Altair - Pass Details

Date: 04 February 2020
Orbit: 1502 x 1682 km, 47.2° (Epoch: 17 February)

Event Time Altitude Azimuth Distance (km) Brightness Sun altitude
Rises 03:37:29 0° 174° (S) 4,771 - -39.7°
Exits shadow 03:39:14 - 168° (SSE) 4,394 9.8 -39.5°
Reaches altitude 10° 03:42:29 10° 152° (SSE) 3,830 9.6 -38.9°
Maximum altitude 03:47:10 15° 123° (ESE) 3,510 9.7 -38.2°
Drops below altitude 10° 03:51:53 10° 94° (E) 3,901 10.2 -37.5°
Sets 03:57:02 0° 73° (ENE) 4,919 11.1 -36.7°
